Home > Weather > Prince Albert > Past weeks

Flag for Canada Past Weather in Prince Albert, Saskatchewan, Canada — Yesterday and Last 2 Weeks

Now
64 °F

Partly sunny.


Feels Like: 64 °F
Forecast: 54 / 77 °F
Wind: 3 mph from North

Location: Prince Albert

Current Time: Jul 23, 2016 at 9:06:41 PM

Latest Report: Jul 23, 2016 at 8:00 PM


Visibility: 15 mi

Pressure: 29.78 "Hg

Humidity: 83%

Dew Point: 59 °F

Location of Prince AlbertLocation

Past Weather in Prince Albert — Graph

°F

Prince Albert Temperature Yesterday

Maximum temperature yesterday: 77 °F (at 4:00 PM)
Minimum temperature yesterday: 54 °F (at 4:00 AM)
Average temperature yesterday: 66 °F

High & Low Weather Summary for the Past Weeks

 TemperatureHumidityPressure
High86 °F (Jul 19, 4:00 PM)100% (Jul 9, 3:00 AM)30.17 "Hg (Jul 9, 3:00 AM)
Low45 °F (Jul 15, 4:00 AM)32% (Jul 16, 3:00 PM)29.48 "Hg (Jul 12, 8:00 AM)
Average66 °F77%29.85 "Hg
* Reported Jul 8 8:00 PM — Jul 23 8:00 PM, Prince Albert, Weather by CustomWeather, © 2016

Note: Actual official high and low records may vary slightly from our data, if they occured in-between our weather recording intervals... More about our weather records

Advertising

Prince Albert Weather History for the Previous 24 Hours

Scroll right to see more
 ConditionsComfort  
Time TempWeatherWind HumidityBarometerVisibility
8:00 PM
Sat, Jul 23
64 °FPartly sunny.3 mph83%29.78 "Hg15 mi
7:52 PM64 °FPartly sunny.3 mph83%29.78 "Hg15 mi
7:00 PM73 °FPartly sunny.2 mph65%29.75 "Hg15 mi
6:00 PM70 °FSprinkles. Partly sunny.10 mph69%29.75 "Hg15 mi
5:00 PM73 °FBroken clouds.8 mph65%29.73 "Hg15 mi
4:00 PM73 °FThunderstorms. Broken clouds.7 mph65%29.71 "Hg15 mi
3:00 PM73 °FScattered showers. Broken clouds.7 mph65%29.72 "Hg15 mi
2:00 PM72 °FBroken clouds.6 mph69%29.73 "Hg15 mi
1:00 PM68 °FPartly sunny.6 mph88%29.75 "Hg15 mi
12:00 PM64 °FSprinkles. Partly sunny.No wind88%29.75 "Hg10 mi
11:00 AM64 °FSprinkles. More clouds than sun.6 mph94%29.76 "Hg12 mi
10:00 AM64 °FMore clouds than sun.No wind94%29.74 "Hg15 mi
9:00 AM63 °FSprinkles. Low clouds.2 mph94%29.74 "Hg15 mi
8:00 AM63 °FSprinkles. Mostly cloudy.5 mph94%29.76 "Hg12 mi
7:00 AM64 °FSprinkles. Broken clouds.7 mph94%29.75 "Hg15 mi
6:00 AM63 °FSprinkles. More clouds than sun.3 mph94%29.77 "Hg12 mi
5:00 AM63 °FSprinkles. Mostly cloudy.6 mph100%29.79 "Hg6 mi
4:00 AM63 °FSprinkles. Mostly cloudy.3 mph100%29.80 "Hg15 mi
3:00 AM64 °FSprinkles. Passing clouds.3 mph94%29.83 "Hg15 mi
2:00 AM64 °FSprinkles. Overcast.2 mph88%29.82 "Hg15 mi
1:52 AM64 °FSprinkles. Mostly cloudy.2 mph94%29.81 "Hg15 mi
1:00 AM68 °FMostly cloudy.12 mph78%29.81 "Hg15 mi
12:00 AM68 °FMostly cloudy.6 mph78%29.84 "Hg15 mi
11:00 PM
Fri, Jul 22
68 °FPassing clouds.7 mph78%29.85 "Hg15 mi
10:00 PM68 °FPartly cloudy.6 mph78%29.88 "Hg15 mi
9:00 PM68 °FBroken clouds.5 mph78%29.89 "Hg15 mi
Weather by CustomWeather, © 2016

See weather overviewHow to use our weather pages